Regional Weather Roundup
Issued by NWS

Home | Current Version | Previous Version | Text Only | Print | Product List | Glossary Off
Versions: 1 2 3 4 5 6 7 8 9 10 11 12 13 14 15 16 17 18 19 20 21 22 23 24 25 26 27 28 29 30 31 32 33 34 35 36 37 38 39 40 41 42 43 44 45 46 47 48 49 50

000
ASUS45 KCYS 281310
RWRWY

WYOMING REGIONAL WEATHER ROUNDUP
NATIONAL WEATHER SERVICE CHEYENNE WY
700 AM MDT THU AUG 28 2014

NOTE:  "FAIR" INDICATES FEW OR NO CLOUDS BELOW 12,000 FEET
WITH NO SIGNIFICANT WEATHER AND/OR OBSTRUCTIONS TO VISIBILITY.

WYZ001-281400-
YELLOWSTONE NATIONAL PARK

CITY           SKY/WX    TMP DP  RH WIND       PRES   REMARKS
LK YELLOWSTONE   N/A     35  34  96 NW3       30.40R
W YELLOWSTONE  NOT AVBL

$$
WYZ002>013-054>058-071-098>099-281400-
NORTHERN WYOMING

CITY           SKY/WX    TMP DP  RH WIND       PRES   REMARKS
JACKSON        CLEAR     39  37  93 CALM      30.32R
CODY           CLEAR     57  43  58 CALM      30.15S
GREYBULL       CLEAR     52  49  89 CALM      30.11R
WORLAND        CLEAR     52  50  93 S5        30.12R
SHERIDAN       CLEAR     51  45  79 CALM      30.06S
BUFFALO        PTCLDY    57  44  62 W9        30.12R
GILLETTE       MOCLDY    59  53  80 CALM      30.06S
HULETT         FAIR      54  52  94 MISG      30.07
NEWCASTLE      FAIR      57  55  94 NW3       30.06

$$
WYZ014>020-022>026-101>103-281400-
CENTRAL WYOMING

CITY           SKY/WX    TMP DP  RH WIND       PRES   REMARKS
BIG PINEY      CLEAR     42  42 100 CALM      30.33R
PINEDALE       SUNNY     37  37 100 NW3       30.33S
DUBOIS         FAIR      43  36  75 NW10      30.31S
LANDER         CLEAR     49  47  93 CALM      30.20R
RIVERTON       CLEAR     51  46  83 W6        30.20R
CASPER         CLOUDY    56  51  84 SW9       30.15R
DOUGLAS        CLOUDY    58  54  86 NW9       30.12R

$$
WYZ021-027>030-104>119-281400-
SOUTHERN WYOMING

CITY           SKY/WX    TMP DP  RH WIND       PRES   REMARKS
EVANSTON       PTCLDY    47  45  93 SW8       30.36R
KEMMERER       SUNNY     45  43  93 W5        30.36R
FORT BRIDGER   CLOUDY    54  47  79 W13       30.37R
ROCK SPRINGS   PTCLDY    47  45  93 W9        30.30R
DIXON          CLOUDY    52  50  92 SW3       30.32R
RAWLINS        CLOUDY    51  48  89 W12       30.25R
SARATOGA       DRIZZLE   50  46  87 NW7       30.28S
LARAMIE        CLOUDY    46  44  93 NE5       30.23S
CHEYENNE       PTCLDY    52  44  74 W12       30.16R
TORRINGTON     CLOUDY    60  58  92 NW6       30.06R
PINE BLUFFS    FAIR      52  46  82 W8        30.12R

$$


USA.gov is the U.S. government's official web portal to all federal, state and local government web resources and services.